User: anonymous   Login
Location: �perlecques
(50.8057°N, 2.1521°E)
Time: 18:22:23
(UTC+00:00)
Language:

COSMOS 2251 DEB - Orbit

View from above orbital plane
View from above orbital plane
View from above satellite
View from above satellite

Ground track
Ground track

The orbit data is extracted from the following two-line orbital elements,

1 47063U 93036BXT 22015.93144596  .00010392  00000-0  12064-2 0  9992
2 47063  73.9700 258.7453 0023553  99.6096 273.6225 14.85275814532719
Epoch (UTC): 15 January 2022 22:21:16
Eccentricity: 0.0023553
inclination: 73.9700°
perigee height: 596 km
apogee height: 629 km
right ascension of ascending node: 258.7453°
argument of perigee: 99.6096°
revolutions per day: 14.85275814
mean anomaly at epoch: 273.6225°
orbit number at epoch: 53271

The dashed part of the orbit path shows where the satellite is in the earth's shadow,  

DLR